• In Czech Republic
  • List of Countries
  • For 7 days
  • Water Temperature
  • Satellite Maps
  • Weather Map
  • Weather Widgets
  • user-avatar
    Login

    Hourly Weather Kitzbuhel

    Today, 13 December, Wednesday

    Time Temperature Precipitation Wind Pressure Humidity
    00:00 -2°C° 0.3 mm 1 mps 674 mmHg 94%
    01:00 -3°C° 0 mm 1 mps 674 mmHg 94%
    02:00 -3°C° 0.1 mm 1 mps 674 mmHg 93%
    03:00 -4°C° 0.1 mm 1 mps 674 mmHg 93%
    04:00 -4°C° 0.1 mm 1 mps 674 mmHg 92%
    05:00 -6°C° 0 mm 1 mps 674 mmHg 91%
    06:00 -6°C° 0 mm 1 mps 674 mmHg 91%
    07:00 -6°C° 0 mm 1 mps 675 mmHg 90%
    08:00 -4°C° 0 mm 1 mps 675 mmHg 88%
    09:00 -3°C° 0 mm 1 mps 675 mmHg 86%
    10:00 -2°C° 0 mm 1 mps 675 mmHg 84%
    11:00 -1°C° 0 mm 1 mps 674 mmHg 81%
    12:00 0°C° 0 mm 1 mps 674 mmHg 78%
    13:00 +2°C° 0 mm 1 mps 674 mmHg 76%
    14:00 -1°C° 0 mm 2 mps 673 mmHg 79%
    15:00 -2°C° 0 mm 2 mps 672 mmHg 82%
    16:00 -3°C° 0 mm 2 mps 671 mmHg 85%
    17:00 -3°C° 0 mm 2 mps 671 mmHg 85%
    18:00 -4°C° 0 mm 2 mps 671 mmHg 84%
    19:00 -5°C° 0 mm 3 mps 670 mmHg 83%
    20:00 -5°C° 0 mm 3 mps 670 mmHg 82%
    21:00 -5°C° 0 mm 3 mps 669 mmHg 81%
    22:00 -5°C° 0 mm 3 mps 669 mmHg 80%
    23:00 -4°C° 0.1 mm 3 mps 668 mmHg 79%

    Tomorrow, 14 December, Thursday

    Time Temperature Precipitation Wind Pressure Humidity
    00:00 -4°C° 0.1 mm 3 mps 668 mmHg 78%
    01:00 -3°C° 0.1 mm 4 mps 667 mmHg 78%
    02:00 -2°C° 0.1 mm 3 mps 667 mmHg 77%
    03:00 -1°C° 0.1 mm 3 mps 666 mmHg 76%
    04:00 -1°C° 0.1 mm 3 mps 666 mmHg 76%
    05:00 -1°C° 0.1 mm 3 mps 666 mmHg 77%
    06:00 -2°C° 0.1 mm 3 mps 666 mmHg 78%
    07:00 -2°C° 0.1 mm 3 mps 666 mmHg 79%
    08:00 -1°C° 0.2 mm 3 mps 666 mmHg 82%
    09:00 -1°C° 0.2 mm 3 mps 667 mmHg 84%
    10:00 +1°C° 0.2 mm 2 mps 668 mmHg 87%
    11:00 +1°C° 0.6 mm 2 mps 668 mmHg 88%
    12:00 +1°C° 0.6 mm 2 mps 668 mmHg 88%
    13:00 +1°C° 0.6 mm 2 mps 667 mmHg 89%
    14:00 -1°C° 0.4 mm 2 mps 667 mmHg 90%
    15:00 +1°C° 0.4 mm 1 mps 667 mmHg 92%
    16:00 +1°C° 0.4 mm 1 mps 667 mmHg 93%
    17:00 +1°C° 0.2 mm 1 mps 667 mmHg 92%
    18:00 -2°C° 0.2 mm 2 mps 666 mmHg 91%
    19:00 -2°C° 0.2 mm 2 mps 666 mmHg 90%
    20:00 -2°C° 0.3 mm 2 mps 666 mmHg 90%
    21:00 -2°C° 0.3 mm 2 mps 665 mmHg 89%
    22:00 -3°C° 0.3 mm 2 mps 664 mmHg 89%
    23:00 -3°C° 0.4 mm 2 mps 664 mmHg 89%

    Day after tomorrow, 15 December, Friday

    Time Temperature Precipitation Wind Pressure Humidity
    00:00 -3°C° 0.4 mm 2 mps 663 mmHg 90%
    01:00 -3°C° 0.4 mm 2 mps 663 mmHg 90%
    02:00 -3°C° 0.5 mm 2 mps 663 mmHg 91%
    03:00 -3°C° 0.5 mm 2 mps 662 mmHg 92%
    04:00 -3°C° 0.5 mm 2 mps 662 mmHg 93%
    05:00 -3°C° 1 mm 2 mps 663 mmHg 94%
    06:00 0°C° 1 mm 1 mps 663 mmHg 95%
    07:00 0°C° 1 mm 1 mps 664 mmHg 96%
    08:00 0°C° 0.4 mm 1 mps 664 mmHg 95%
    09:00 0°C° 0.4 mm 1 mps 664 mmHg 94%
    10:00 +1°C° 0.4 mm 1 mps 664 mmHg 94%
    11:00 +1°C° 0.3 mm 1 mps 664 mmHg 93%
    12:00 +1°C° 0.3 mm 1 mps 664 mmHg 93%
    13:00 +2°C° 0.3 mm 1 mps 663 mmHg 93%
    14:00 +1°C° 0.4 mm 1 mps 663 mmHg 93%
    15:00 +1°C° 0.4 mm 1 mps 663 mmHg 94%
    16:00 0°C° 0.4 mm 1 mps 663 mmHg 94%
    17:00 -1°C° 0.6 mm 1 mps 663 mmHg 95%
    18:00 -1°C° 0.6 mm 1 mps 663 mmHg 95%
    19:00 -2°C° 0.6 mm 1 mps 663 mmHg 95%
    20:00 -2°C° 0.8 mm 1 mps 664 mmHg 95%
    21:00 -4°C° 0.8 mm 2 mps 664 mmHg 95%
    22:00 -4°C° 0.8 mm 2 mps 664 mmHg 95%
    23:00 -4°C° 0.6 mm 2 mps 664 mmHg 95%

    16 December, Saturday

    Time Temperature Precipitation Wind Pressure Humidity
    00:00 -5°C° 0.6 mm 2 mps 664 mmHg 95%
    01:00 -5°C° 0.6 mm 2 mps 664 mmHg 95%
    02:00 -5°C° 0.3 mm 2 mps 665 mmHg 94%
    03:00 -5°C° 0.3 mm 2 mps 665 mmHg 93%
    04:00 -5°C° 0.3 mm 2 mps 665 mmHg 93%
    05:00 -6°C° 0.1 mm 2 mps 665 mmHg 92%
    06:00 -6°C° 0.1 mm 2 mps 665 mmHg 91%
    07:00 -6°C° 0.1 mm 2 mps 666 mmHg 90%
    08:00 -5°C° 0.1 mm 2 mps 666 mmHg 89%
    09:00 -5°C° 0.1 mm 2 mps 667 mmHg 89%
    10:00 -4°C° 0.1 mm 2 mps 667 mmHg 88%
    11:00 -4°C° 0.3 mm 2 mps 668 mmHg 89%
    12:00 -3°C° 0.3 mm 2 mps 668 mmHg 90%
    13:00 -3°C° 0.3 mm 2 mps 668 mmHg 91%
    14:00 -3°C° 0.3 mm 2 mps 669 mmHg 92%
    15:00 -3°C° 0.3 mm 2 mps 669 mmHg 93%
    16:00 -4°C° 0.3 mm 2 mps 670 mmHg 95%
    17:00 -4°C° 0.3 mm 2 mps 670 mmHg 95%
    18:00 -5°C° 0.3 mm 2 mps 671 mmHg 95%
    19:00 -5°C° 0.3 mm 2 mps 672 mmHg 96%
    20:00 -5°C° 0.4 mm 2 mps 672 mmHg 96%
    21:00 -5°C° 0.4 mm 2 mps 673 mmHg 96%
    22:00 -5°C° 0.4 mm 2 mps 673 mmHg 96%
    23:00 -5°C° 0.3 mm 2 mps 673 mmHg 96%

    17 December, Sunday

    Time Temperature Precipitation Wind Pressure Humidity
    00:00 -6°C° 0.3 mm 2 mps 674 mmHg 96%
    01:00 -6°C° 0.3 mm 2 mps 674 mmHg 96%
    02:00 -6°C° 0.3 mm 2 mps 674 mmHg 96%
    03:00 -6°C° 0.3 mm 2 mps 674 mmHg 96%
    04:00 -6°C° 0.3 mm 2 mps 674 mmHg 96%
    05:00 -6°C° 0.3 mm 2 mps 675 mmHg 95%
    06:00 -6°C° 0.3 mm 2 mps 675 mmHg 95%
    07:00 -6°C° 0.3 mm 2 mps 676 mmHg 95%
    08:00 -6°C° 0.3 mm 2 mps 676 mmHg 94%
    09:00 -6°C° 0.3 mm 2 mps 676 mmHg 94%
    10:00 -6°C° 0.3 mm 2 mps 677 mmHg 93%
    11:00 -6°C° 0.4 mm 3 mps 677 mmHg 92%
    12:00 -6°C° 0.4 mm 3 mps 677 mmHg 91%
    13:00 -6°C° 0.4 mm 3 mps 677 mmHg 90%
    14:00 -6°C° 0.3 mm 3 mps 677 mmHg 91%
    15:00 -5°C° 0.3 mm 2 mps 678 mmHg 92%
    16:00 -6°C° 0.3 mm 2 mps 678 mmHg 93%
    17:00 -6°C° 0.4 mm 2 mps 678 mmHg 94%
    18:00 -6°C° 0.4 mm 2 mps 679 mmHg 94%
    19:00 -6°C° 0.4 mm 2 mps 679 mmHg 94%
    20:00 -6°C° 0.3 mm 2 mps 680 mmHg 94%
    21:00 -7°C° 0.3 mm 2 mps 680 mmHg 94%
    22:00 -7°C° 0.3 mm 2 mps 680 mmHg 94%
    23:00 -7°C° 0.2 mm 2 mps 681 mmHg 94%

    18 December, Monday

    Time Temperature Precipitation Wind Pressure Humidity
    00:00 -7°C° 0.2 mm 2 mps 681 mmHg 94%
    01:00 -7°C° 0.2 mm 2 mps 681 mmHg 93%
    02:00 -8°C° 0.1 mm 2 mps 681 mmHg 93%
    03:00 -8°C° 0.1 mm 2 mps 681 mmHg 93%
    04:00 -9°C° 0.1 mm 2 mps 681 mmHg 92%
    05:00 -9°C° 0.1 mm 2 mps 681 mmHg 91%
    06:00 -9°C° 0.1 mm 2 mps 681 mmHg 90%
    07:00 -9°C° 0.1 mm 2 mps 681 mmHg 89%
    08:00 -8°C° 0.1 mm 2 mps 681 mmHg 88%
    09:00 -7°C° 0.1 mm 2 mps 681 mmHg 87%
    10:00 -6°C° 0.1 mm 2 mps 681 mmHg 86%
    11:00 -4°C° 0.2 mm 1 mps 680 mmHg 87%
    12:00 -3°C° 0.2 mm 1 mps 679 mmHg 88%
    13:00 -2°C° 0.2 mm 1 mps 678 mmHg 88%
    14:00 -2°C° 0.7 mm 1 mps 678 mmHg 91%
    15:00 -2°C° 0.7 mm 1 mps 677 mmHg 93%
    16:00 -2°C° 0.7 mm 1 mps 677 mmHg 95%
    17:00 -2°C° 0.9 mm 1 mps 677 mmHg 95%
    18:00 -2°C° 0.9 mm 1 mps 677 mmHg 95%
    19:00 -2°C° 0.9 mm 1 mps 677 mmHg 95%
    20:00 -1°C° 0.5 mm 1 mps 678 mmHg 95%
    21:00 -3°C° 0.5 mm 2 mps 678 mmHg 95%
    22:00 -3°C° 0.5 mm 2 mps 679 mmHg 94%
    23:00 -3°C° 0.3 mm 2 mps 679 mmHg 94%
    Show more